,,,PA_Meas_PMT16A,,PR_Meas_QMR101_102,,RH_Meas_QMH101,,SR_Meas_QMS101,,TA_Meas_QMH101,,GenWind,,GenWind,
date,time,status,PA,status,PR,status,RH,status,SR,status,TA,status,DirAvg,status,SpdAvg,
2008-08-19, 06:28:04,VALID,1004.7,VALID,0,VALID,96.0629,VALID,32.9846,VALID,23.3532,VALID,347,VALID,0,
2008-08-19, 06:29:04,VALID,1003.8,VALID,0,VALID,96.0934,VALID,33.3869,VALID,23.3727,VALID,347,VALID,0.288672,
2008-08-19, 06:30:04,VALID,1005.05,VALID,0,VALID,96.0857,VALID,33.4875,VALID,23.4116,VALID,347,VALID,0.361328,
2008-08-19, 07:02:04,VALID,1006.69,VALID,0,VALID,95.9561,VALID,120.474,VALID,24.5017,VALID,12,VALID,0.132813,
2008-08-19, 07:03:04,VALID,1006.68,VALID,0,VALID,95.9561,VALID,127.715,VALID,24.5582,VALID,12,VALID,0.0960938,
2008-08-19, 07:04:04,VALID,1006.67,VALID,0,VALID,95.9408,VALID,135.056,VALID,24.638,VALID,12,VALID,0,
2008-08-19, 07:05:04,VALID,1006.65,VALID,0,VALID,95.9408,VALID,140.889,VALID,24.7159,VALID,12,VALID,0,
2008-08-19, 07:06:04,VALID,1006.64,VALID,0,VALID,95.9027,VALID,144.308,VALID,24.8346,VALID,12,VALID,0,
2008-08-19, 07:07:04,VALID,1006.62,VALID,0,VALID,95.8798,VALID,146.42,VALID,24.893,VALID,12,VALID,0.0941406,
2008-08-19, 07:08:04,VALID,1006.64,VALID,0,VALID,95.834,VALID,146.118,VALID,24.9904,VALID,12,VALID,0,
2008-08-19, 07:09:04,VALID,1006.65,VALID,0,VALID,95.7959,VALID,144.408,VALID,25.0488,VALID,12,VALID,0.0128906,
2008-08-19, 07:10:04,VALID,1006.66,VALID,0,VALID,95.7196,VALID,143.403,VALID,25.1072,VALID,12,VALID,0.224219,
2008-08-19, 07:11:04,VALID,1006.67,VALID,0,VALID,95.5441,VALID,137.268,VALID,25.1267,VALID,12,VALID,0.240625,
2008-08-19, 07:12:04,VALID,1006.7,VALID,0,VALID,95.2084,VALID,137.067,VALID,25.1637,VALID,31,VALID,0.260547,
2008-08-19, 07:13:04,VALID,1006.79,VALID,0,VALID,95.0864,VALID,137.972,VALID,25.2435,VALID,34,VALID,0.367969,
2008-08-19, 07:14:04,VALID,1006.77,VALID,0,VALID,94.766,VALID,138.676,VALID,25.2825,VALID,47,VALID,0.357031,
2008-08-19, 07:15:04,VALID,1006.8,VALID,0,VALID,94.5295,VALID,141.19,VALID,25.3409,VALID,47,VALID,0.372656,
2008-08-19, 07:16:04,VALID,1006.83,VALID,0,VALID,94.2396,VALID,144.207,VALID,25.339,VALID,71,VALID,0.378516,
2008-08-19, 07:17:04,VALID,1006.82,VALID,0,VALID,93.6521,VALID,147.928,VALID,25.3779,VALID,96,VALID,0.58125,
2008-08-19, 07:18:04,VALID,1006.85,VALID,0,VALID,93.5301,VALID,150.14,VALID,25.4753,VALID,96,VALID,0.401563,
2008-08-19, 07:19:04,VALID,1006.83,VALID,0,VALID,93.1105,VALID,153.861,VALID,25.4948,VALID,96,VALID,0.154297,
2008-08-19, 07:20:04,VALID,1006.82,VALID,0,VALID,92.8969,VALID,163.415,VALID,25.5513,VALID,96,VALID,0.0398437,
2008-08-19, 07:21:04,VALID,1006.82,VALID,0,VALID,92.6375,VALID,170.957,VALID,25.6486,VALID,43,VALID,0.315625,
2008-08-19, 07:22:04,VALID,1006.85,VALID,0,VALID,91.8517,VALID,174.477,VALID,25.6681,VALID,43,VALID,0.171484,
2008-08-19, 07:23:04,VALID,1006.9,VALID,0,VALID,91.7144,VALID,197.405,VALID,25.7869,VALID,43,VALID,0.246094,
2008-08-19, 07:24:04,VALID,1006.97,VALID,0,VALID,90.982,VALID,183.628,VALID,25.8473,VALID,103,VALID,0.630469,
2008-08-19, 07:25:04,VALID,1007.03,VALID,0,VALID,89.3113,VALID,191.673,VALID,25.8863,VALID,101,VALID,0.621875,
2008-08-19, 07:26:04,VALID,1007.03,VALID,0,VALID,88.8002,VALID,205.249,VALID,25.9642,VALID,113,VALID,0.692969,
2008-08-19, 07:27:04,VALID,1007.06,VALID,0,VALID,89.1511,VALID,219.629,VALID,26.0012,VALID,112,VALID,0.688281,
2008-08-19, 07:28:04,VALID,1007.04,VALID,0,VALID,89.2884,VALID,223.049,VALID,26.0985,VALID,95,VALID,0.317578,
2008-08-19, 07:29:04,VALID,1007,VALID,0,VALID,88.3501,VALID,199.919,VALID,26.1375,VALID,81,VALID,0.522266,
2008-08-19, 07:30:04,VALID,1006.97,VALID,0,VALID,88.2967,VALID,211.484,VALID,26.194,VALID,70,VALID,0.126563,
2008-08-19, 07:31:04,VALID,1006.94,VALID,0,VALID,88.0754,VALID,241.954,VALID,26.3128,VALID,70,VALID,0.142969,
2008-08-19, 07:32:04,VALID,1006.95,VALID,0,VALID,87.6863,VALID,232.3,VALID,26.3927,VALID,39,VALID,0.523047,
2008-08-19, 07:33:04,VALID,1006.95,VALID,0,VALID,86.6031,VALID,236.625,VALID,26.4297,VALID,49,VALID,0.586719,
2008-08-19, 07:34:04,VALID,1006.95,VALID,0,VALID,86.2369,VALID,246.882,VALID,26.5291,VALID,27,VALID,0.454297,
2008-08-19, 07:35:04,VALID,1006.97,VALID,0,VALID,85.3595,VALID,262.771,VALID,26.5661,VALID,20,VALID,1.0125,
2008-08-19, 07:36:04,VALID,1007.01,VALID,0,VALID,85.8936,VALID,287.711,VALID,26.644,VALID,25,VALID,0.286719,
2008-08-19, 07:37:04,VALID,1007.05,VALID,0,VALID,86.3284,VALID,285.699,VALID,26.8019,VALID,30,VALID,0.110156,
2008-08-19, 07:38:04,VALID,1007.09,VALID,0,VALID,85.0696,VALID,323.008,VALID,26.9383,VALID,29,VALID,0.535156,
2008-08-19, 07:39:04,VALID,1007.12,VALID,0,VALID,83.4905,VALID,247.485,VALID,26.9967,VALID,36,VALID,0.711328,
2008-08-19, 07:40:04,VALID,1007.17,VALID,0,VALID,82.369,VALID,297.164,VALID,27.0357,VALID,19,VALID,0.481641,
2008-08-19, 07:41:04,VALID,1007.17,VALID,0,VALID,83.1929,VALID,331.657,VALID,27.1136,VALID,19,VALID,0.397266,
2008-08-19, 07:42:04,VALID,1007.19,VALID,0,VALID,82.7276,VALID,336.182,VALID,27.1916,VALID,34,VALID,0.711328,
2008-08-19, 07:43:04,VALID,1007.23,VALID,0,VALID,81.6595,VALID,377.614,VALID,27.2869,VALID,94,VALID,1,
2008-08-19, 07:44:04,VALID,1007.16,VALID,0,VALID,82.0486,VALID,392.698,VALID,27.3454,VALID,66,VALID,0.578516,
2008-08-19, 07:45:04,VALID,1007.19,VALID,0,VALID,82.0868,VALID,410.8,VALID,27.5208,VALID,68,VALID,0.288281,
2008-08-19, 07:46:04,VALID,1007.16,VALID,0,VALID,80.1872,VALID,411.504,VALID,27.5792,VALID,79,VALID,0.673047,
2008-08-19, 07:47:04,VALID,1007.18,VALID,0,VALID,78.074,VALID,419.247,VALID,27.6788,VALID,66,VALID,0.318359,
2008-08-19, 07:48:04,VALID,1007.13,VALID,0,VALID,77.6925,VALID,426.99,VALID,27.7957,VALID,91,VALID,0.953125,
2008-08-19, 07:49:04,VALID,1007.12,VALID,0,VALID,75.7243,VALID,429.705,VALID,27.8131,VALID,82,VALID,1.12148,
2008-08-19, 07:50:04,VALID,1007.12,VALID,0,VALID,78.1503,VALID,439.058,VALID,27.8932,VALID,15,VALID,0.475391,
2008-08-19, 07:51:04,VALID,1007.1,VALID,0,VALID,77.8527,VALID,398.43,VALID,28.0512,VALID,25,VALID,0.440234,
2008-08-19, 07:52:04,VALID,1007.14,VALID,0,VALID,76.449,VALID,455.45,VALID,28.1466,VALID,10,VALID,0.922266,
2008-08-19, 07:53:04,VALID,1007.16,VALID,0,VALID,75.9302,VALID,459.673,VALID,28.2245,VALID,59,VALID,0.590625,
2008-08-19, 07:54:04,VALID,1007.15,VALID,0,VALID,75.0529,VALID,468.422,VALID,28.2462,VALID,113,VALID,1.41328,
2008-08-19, 07:55:04,VALID,1007.15,VALID,0,VALID,77.4865,VALID,479.384,VALID,28.1682,VALID,102,VALID,0.74375,
2008-08-19, 07:56:04,VALID,1007.17,VALID,0,VALID,79.3022,VALID,493.462,VALID,28.3046,VALID,41,VALID,0.283594,
2008-08-19, 07:57:04,VALID,1007.16,VALID,0,VALID,76.4032,VALID,508.446,VALID,28.4389,VALID,24,VALID,0.525391,
2008-08-19, 07:58:04,VALID,1007.17,VALID,0,VALID,75.0606,VALID,511.865,VALID,28.5776,VALID,93,VALID,0.776563,
2008-08-19, 07:59:04,VALID,1007.17,VALID,0,VALID,76.2354,VALID,515.888,VALID,28.5364,VALID,111,VALID,1.13906,
2008-08-19, 08:00:04,VALID,1007.21,VALID,0,VALID,74.435,VALID,526.045,VALID,28.6144,VALID,63,VALID,0.530078,
2008-08-19, 08:01:04,VALID,1007.24,VALID,0,VALID,72.1158,VALID,547.364,VALID,28.6924,VALID,83,VALID,1.10234,
2008-08-19, 08:02:04,VALID,1007.26,VALID,0,VALID,70.2162,VALID,546.761,VALID,28.6945,VALID,98,VALID,1.29844,
2008-08-19, 08:03:04,VALID,1007.24,VALID,0,VALID,72.0319,VALID,556.716,VALID,28.6729,VALID,39,VALID,0.685156,
2008-08-19, 08:04:04,VALID,1007.25,VALID,0,VALID,70.9562,VALID,560.035,VALID,28.753,VALID,22,VALID,1.04297,
2008-08-19, 08:05:04,VALID,1007.28,VALID,0,VALID,70.8494,VALID,588.494,VALID,28.7335,VALID,77,VALID,1.2582,
2008-08-19, 08:06:04,VALID,1007.28,VALID,0,VALID,70.6129,VALID,618.563,VALID,28.8115,VALID,23,VALID,1.08828,
2008-08-19, 08:07:04,VALID,1007.28,VALID,0,VALID,70.2467,VALID,614.641,VALID,28.9675,VALID,69,VALID,1.15625,
2008-08-19, 08:08:04,VALID,1007.25,VALID,0,VALID,70.6968,VALID,605.992,VALID,28.8895,VALID,113,VALID,1.25937,
2008-08-19, 08:09:04,VALID,1007.25,VALID,0,VALID,70.8723,VALID,596.137,VALID,28.909,VALID,81,VALID,0.942969,
2008-08-19, 08:10:04,VALID,1007.25,VALID,0,VALID,70.1552,VALID,595.936,VALID,28.948,VALID,77,VALID,1.20313,
2008-08-19, 08:11:04,VALID,1007.23,VALID,0,VALID,67.775,VALID,440.063,VALID,28.8678,VALID,99,VALID,0.7875,
2008-08-19, 08:12:04,VALID,1007.27,VALID,0,VALID,70.1476,VALID,339.702,VALID,28.792,VALID,79,VALID,1.625,
2008-08-19, 08:13:04,VALID,1007.24,VALID,0,VALID,69.8424,VALID,292.035,VALID,28.792,VALID,45,VALID,1.04883,
2008-08-19, 08:14:04,VALID,1007.21,VALID,0,VALID,68.248,VALID,313.354,VALID,28.753,VALID,78,VALID,1.44805,
2008-08-19, 08:15:04,VALID,1007.23,VALID,0,VALID,70.6892,VALID,565.767,VALID,28.675,VALID,19,VALID,0.5875,
2008-08-19, 08:16:04,VALID,1007.23,VALID,0,VALID,69.4686,VALID,430.007,VALID,28.6924,VALID,26,VALID,0.767578,
2008-08-19, 08:17:04,VALID,1007.23,VALID,0,VALID,68.7057,VALID,581.354,VALID,28.8115,VALID,356,VALID,0.866406,
2008-08-19, 08:18:04,VALID,1007.28,VALID,0,VALID,69.1939,VALID,589.098,VALID,28.8483,VALID,42,VALID,0.784375,
2008-08-19, 08:19:04,VALID,1007.28,VALID,0,VALID,69.7814,VALID,617.959,VALID,29.026,VALID,34,VALID,0.957031,
2008-08-19, 08:20:04,VALID,1007.34,VALID,0,VALID,70.8265,VALID,607.099,VALID,29.2015,VALID,100,VALID,0.984375,
2008-08-19, 08:21:04,VALID,1007.31,VALID,0,VALID,67.1952,VALID,601.165,VALID,29.221,VALID,19,VALID,1.27891,
2008-08-19, 08:22:04,VALID,1007.32,VALID,0,VALID,67.9962,VALID,591.813,VALID,29.143,VALID,24,VALID,1.41367,
2008-08-19, 08:23:04,VALID,1007.32,VALID,0,VALID,69.4686,VALID,554.806,VALID,29.0455,VALID,71,VALID,0.962109,
2008-08-19, 08:24:04,VALID,1007.3,VALID,0,VALID,69.5449,VALID,194.589,VALID,28.948,VALID,60,VALID,0.919922,
2008-08-19, 08:25:04,VALID,1007.32,VALID,0,VALID,68.4539,VALID,164.823,VALID,28.831,VALID,59,VALID,0.790234,
2008-08-19, 08:26:04,VALID,1007.31,VALID,0,VALID,69.5372,VALID,156.375,VALID,28.675,VALID,71,VALID,1.00547,
2008-08-19, 08:27:04,VALID,1007.34,VALID,0,VALID,70.8876,VALID,151.146,VALID,28.5581,VALID,64,VALID,0.568359,
2008-08-19, 08:28:04,VALID,1007.35,VALID,0,VALID,71.4063,VALID,146.922,VALID,28.4021,VALID,69,VALID,0.726953,
2008-08-19, 08:29:04,VALID,1007.37,VALID,0,VALID,72.9474,VALID,146.017,VALID,28.3631,VALID,62,VALID,0.437891,
2008-08-19, 08:30:04,VALID,1007.39,VALID,0,VALID,73.4737,VALID,145.615,VALID,28.2267,VALID,78,VALID,1.08359,
2008-08-19, 08:31:04,VALID,1007.41,VALID,0,VALID,72.4133,VALID,146.017,VALID,28.0728,VALID,71,VALID,1.05547,
2008-08-19, 08:32:04,VALID,1007.42,VALID,0,VALID,72.8406,VALID,145.313,VALID,27.9516,VALID,46,VALID,0.636719,
2008-08-19, 08:33:04,VALID,1007.45,VALID,0,VALID,73.3441,VALID,144.107,VALID,27.8932,VALID,69,VALID,0.832031,
2008-08-19, 08:34:04,VALID,1007.49,VALID,0,VALID,72.0166,VALID,141.09,VALID,27.8347,VALID,15,VALID,0.739062,
2008-08-19, 08:35:04,VALID,1007.53,VALID,0,VALID,74.7096,VALID,138.576,VALID,27.8152,VALID,41,VALID,0.658203,
2008-08-19, 08:36:04,VALID,1007.57,VALID,0,VALID,73.4966,VALID,139.783,VALID,27.7372,VALID,94,VALID,1.44414,
2008-08-19, 08:37:04,VALID,1007.59,VALID,0,VALID,74.7554,VALID,140.688,VALID,27.6593,VALID,113,VALID,0.778516,
2008-08-19, 08:38:04,VALID,1007.62,VALID,0,VALID,76.0599,VALID,140.185,VALID,27.6203,VALID,92,VALID,0.469531,
2008-08-19, 08:39:04,VALID,1007.65,VALID,0,VALID,76.3193,VALID,140.587,VALID,27.5987,VALID,97,VALID,0.645703,
2008-08-19, 08:40:04,VALID,1007.62,VALID,0,VALID,76.3193,VALID,143.101,VALID,27.5813,VALID,95,VALID,0.747656,
2008-08-19, 08:41:04,VALID,1007.62,VALID,0,VALID,76.9907,VALID,145.213,VALID,27.5618,VALID,80,VALID,0.340625,
2008-08-19, 08:42:04,VALID,1007.6,VALID,0,VALID,77.4713,VALID,145.917,VALID,27.6029,VALID,118,VALID,0.175781,
2008-08-19, 08:43:04,VALID,1007.57,VALID,0,VALID,77.0288,VALID,145.615,VALID,27.5813,VALID,113,VALID,0.572656,
2008-08-19, 08:44:04,VALID,1007.55,VALID,0,VALID,76.2049,VALID,145.012,VALID,27.5229,VALID,101,VALID,0.609375,
2008-08-19, 08:45:04,VALID,1007.53,VALID,0,VALID,76.4338,VALID,144.207,VALID,27.5034,VALID,94,VALID,0.858594,
2008-08-19, 08:46:04,VALID,1007.54,VALID,0,VALID,76.4032,VALID,143.403,VALID,27.4839,VALID,94,VALID,0.292969,
2008-08-19, 08:47:04,VALID,1007.57,VALID,0,VALID,77.3034,VALID,144.207,VALID,27.525,VALID,106,VALID,0.33125,
2008-08-19, 08:48:04,VALID,1007.58,VALID,0,VALID,75.4725,VALID,146.42,VALID,27.4449,VALID,128,VALID,1.25859,
2008-08-19, 08:49:04,VALID,1007.59,VALID,0,VALID,76.6397,VALID,148.733,VALID,27.4059,VALID,139,VALID,1.1043,
2008-08-19, 08:50:04,VALID,1007.6,VALID,0,VALID,79.0733,VALID,149.034,VALID,27.2695,VALID,173,VALID,1.27148,
2008-08-19, 08:51:04,VALID,1007.65,VALID,0,VALID,79.203,VALID,148.531,VALID,27.1506,VALID,154,VALID,1.29297,
2008-08-19, 08:52:04,VALID,1007.63,VALID,0,VALID,80.6144,VALID,146.42,VALID,27.0747,VALID,170,VALID,0.762109,
2008-08-19, 08:53:04,VALID,1007.66,VALID,0,VALID,80.3703,VALID,142.196,VALID,26.9772,VALID,146,VALID,1.10117,
2008-08-19, 08:54:04,VALID,1007.67,VALID,0,VALID,81.1331,VALID,136.263,VALID,26.9557,VALID,170,VALID,0.199609,
2008-08-19, 08:55:04,VALID,1007.66,VALID,0,VALID,81.1255,VALID,128.721,VALID,26.9383,VALID,147,VALID,0.725,
2008-08-19, 08:56:04,VALID,1007.7,VALID,0,VALID,81.1713,VALID,119.268,VALID,26.9578,VALID,124,VALID,0.658594,
2008-08-19, 08:57:04,VALID,1007.68,VALID,0,VALID,80.2863,VALID,108.608,VALID,26.9403,VALID,166,VALID,1.13359,
2008-08-19, 08:58:04,VALID,1007.71,VALID,0,VALID,81.2018,VALID,96.9427,VALID,26.8993,VALID,164,VALID,0.860156,
2008-08-19, 08:59:04,VALID,1007.71,VALID,0,VALID,81.9037,VALID,85.6796,VALID,26.8993,VALID,54,VALID,0.642578,
2008-08-19, 09:00:04,VALID,1007.7,VALID,0,VALID,81.6748,VALID,76.9307,VALID,26.8778,VALID,77,VALID,0.413281,
2008-08-19, 09:01:04,VALID,1007.67,VALID,0,VALID,80.6373,VALID,70.7963,VALID,26.8388,VALID,72,VALID,0.551953,
2008-08-19, 09:02:04,VALID,1007.67,VALID,0,VALID,80.5839,VALID,66.3715,VALID,26.8603,VALID,74,VALID,0.332812,
2008-08-19, 09:03:04,VALID,1007.65,VALID,0,VALID,81.0492,VALID,62.9524,VALID,26.8214,VALID,72,VALID,0.508594,
2008-08-19, 09:04:04,VALID,1007.63,VALID,0,VALID,82.041,VALID,59.835,VALID,26.7804,VALID,93,VALID,0.537891,
2008-08-19, 09:05:04,VALID,1007.62,VALID,0,VALID,80.9653,VALID,57.0192,VALID,26.8019,VALID,93,VALID,0.515234,
2008-08-19, 09:06:04,VALID,1007.64,VALID,0,VALID,81.2552,VALID,54.0023,VALID,26.7609,VALID,93,VALID,0.528125,
2008-08-19, 09:07:04,VALID,1007.64,VALID,0,VALID,81.7206,VALID,50.8848,VALID,26.7629,VALID,93,VALID,0.491406,
2008-08-19, 09:08:04,VALID,1007.63,VALID,0,VALID,81.3162,VALID,48.0691,VALID,26.7609,VALID,93,VALID,0.612109,
2008-08-19, 09:09:04,VALID,1007.62,VALID,0,VALID,81.9494,VALID,46.0578,VALID,26.7024,VALID,93,VALID,0.43125,
2008-08-19, 09:10:04,VALID,1007.62,VALID,0,VALID,83.2769,VALID,44.7505,VALID,26.7045,VALID,93,VALID,0.229687,
2008-08-19, 09:11:04,VALID,1007.63,VALID,0,VALID,84.3449,VALID,43.2421,VALID,26.685,VALID,93,VALID,0,
2008-08-19, 09:12:04,VALID,1007.62,VALID,0,VALID,83.9863,VALID,42.1359,VALID,26.6675,VALID,93,VALID,0,
2008-08-19, 09:13:04,VALID,1007.61,VALID,0,VALID,84.0855,VALID,40.9291,VALID,26.5876,VALID,93,VALID,0,
2008-08-19, 09:14:04,VALID,1007.65,VALID,0,VALID,84.3068,VALID,40.0241,VALID,26.5486,VALID,93,VALID,0,
2008-08-19, 09:15:04,VALID,1007.69,VALID,0,VALID,84.9857,VALID,38.5156,VALID,26.5096,VALID,93,VALID,0,
2008-08-19, 09:16:04,VALID,1007.73,VALID,0,VALID,86.0385,VALID,37.0072,VALID,26.4922,VALID,93,VALID,0,
2008-08-19, 09:17:04,VALID,1007.77,VALID,0,VALID,86.4123,VALID,35.6998,VALID,26.4337,VALID,89,VALID,0,
2008-08-19, 09:18:04,VALID,1007.8,VALID,0,VALID,86.7556,VALID,34.292,VALID,26.3538,VALID,40,VALID,0.314063,
2008-08-19, 09:19:04,VALID,1007.88,VALID,0,VALID,87.3278,VALID,32.5824,VALID,26.2953,VALID,40,VALID,0,
2008-08-19, 09:20:04,VALID,1007.91,VALID,0,VALID,87.9915,VALID,30.6717,VALID,26.2759,VALID,40,VALID,0,
2008-08-19, 09:21:04,VALID,1007.98,VALID,0,VALID,88.8383,VALID,27.7554,VALID,26.2174,VALID,40,VALID,0.00234375,
2008-08-19, 09:22:04,VALID,1008.05,VALID,0,VALID,89.1435,VALID,24.2357,VALID,26.159,VALID,66,VALID,0.689453,
2008-08-19, 09:23:04,VALID,1008.11,VALID,0,VALID,89.5402,VALID,21.1182,VALID,26.0791,VALID,76,VALID,0.41875,
2008-08-19, 09:24:04,VALID,1008.17,VALID,0,VALID,90.0589,VALID,19.0064,VALID,26.0421,VALID,83,VALID,0.028125,
2008-08-19, 09:25:04,VALID,1008.18,VALID,0,VALID,90.0437,VALID,17.5985,VALID,25.9447,VALID,88,VALID,0.5875,
2008-08-19, 09:26:04,VALID,1008.2,VALID,0,VALID,89.9064,VALID,16.9951,VALID,25.8453,VALID,115,VALID,0.720312,
2008-08-19, 09:27:04,VALID,1008.21,VALID,0,VALID,89.5707,VALID,17.0957,VALID,25.748,VALID,120,VALID,1.03008,
2008-08-19, 09:28:04,VALID,1008.23,VALID,0,VALID,89.1358,VALID,17.498,VALID,25.6915,VALID,108,VALID,1.2125,
2008-08-19, 09:29:04,VALID,1008.23,VALID,0,VALID,89.6393,VALID,17.7996,VALID,25.6506,VALID,135,VALID,1.03906,
2008-08-19, 09:30:04,VALID,1008.23,VALID,0.5,VALID,90.4404,VALID,17.9002,VALID,25.6116,VALID,154,VALID,1.65352,
2008-08-19, 09:31:04,VALID,1008.26,VALID,0,VALID,89.38,VALID,17.0957,VALID,25.5551,VALID,162,VALID,3.53086,
2008-08-19, 09:32:04,VALID,1008.2,VALID,0,VALID,89.4715,VALID,16.9951,VALID,25.2435,VALID,142,VALID,3.12344,
2008-08-19, 09:33:04,VALID,1008.14,VALID,0,VALID,89.7233,VALID,18.0008,VALID,25.0098,VALID,160,VALID,3.30664,
2008-08-19, 09:34:04,VALID,1008.11,VALID,0.5,VALID,90.9057,VALID,18.5036,VALID,24.8327,VALID,108,VALID,2.08281,
2008-08-19, 09:35:04,VALID,1008.04,VALID,0,VALID,91.5771,VALID,18.3025,VALID,24.7159,VALID,117,VALID,1.51484,
2008-08-19, 09:36:04,VALID,1008.02,VALID,0,VALID,91.7907,VALID,18.403,VALID,24.6204,VALID,129,VALID,1.43633,
2008-08-19, 09:37:04,VALID,1007.94,VALID,0,VALID,91.9585,VALID,19.0064,VALID,24.523,VALID,122,VALID,1.95938,
2008-08-19, 09:38:04,VALID,1007.93,VALID,0,VALID,92.0806,VALID,20.716,VALID,24.4257,VALID,113,VALID,2.34883,
2008-08-19, 09:39:04,VALID,1007.9,VALID,0.5,VALID,92.4239,VALID,22.2244,VALID,24.3478,VALID,107,VALID,1.2543,
2008-08-19, 09:40:04,VALID,1007.85,VALID,0,VALID,92.7138,VALID,22.7272,VALID,24.2468,VALID,97,VALID,0.925391,
2008-08-19, 09:41:04,VALID,1007.8,VALID,0,VALID,92.9045,VALID,23.934,VALID,24.2486,VALID,86,VALID,1.09063,
2008-08-19, 09:42:04,VALID,1007.75,VALID,0.5,VALID,93.0571,VALID,24.4368,VALID,24.1884,VALID,77,VALID,0.869141,
2008-08-19, 09:43:04,VALID,1007.76,VALID,0,VALID,93.1715,VALID,25.0402,VALID,24.1707,VALID,97,VALID,0.936328,
2008-08-19, 09:44:04,VALID,1007.73,VALID,0,VALID,93.4614,VALID,25.7441,VALID,24.1513,VALID,80,VALID,0.538281,
2008-08-19, 09:45:04,VALID,1007.72,VALID,0.5,VALID,93.5377,VALID,26.8503,VALID,24.1123,VALID,124,VALID,0.712891,
2008-08-19, 09:46:04,VALID,1007.69,VALID,0,VALID,93.7055,VALID,28.5599,VALID,24.0716,VALID,115,VALID,0.158984,
2008-08-19, 09:47:04,VALID,1007.69,VALID,0.5,VALID,93.7208,VALID,29.9678,VALID,24.0345,VALID,118,VALID,0.480859,
2008-08-19, 09:48:04,VALID,1007.72,VALID,0,VALID,93.9497,VALID,31.2751,VALID,24.0363,VALID,95,VALID,0.460547,
2008-08-19, 09:49:04,VALID,1007.74,VALID,0,VALID,94.087,VALID,32.7835,VALID,24.0363,VALID,97,VALID,0.704297,
2008-08-19, 09:50:04,VALID,1007.79,VALID,0,VALID,94.1328,VALID,35.0965,VALID,24.0168,VALID,99,VALID,0.925,
2008-08-19, 09:51:04,VALID,1007.8,VALID,0,VALID,94.2777,VALID,37.2083,VALID,24.0168,VALID,108,VALID,1.01289,
2008-08-19, 09:52:04,VALID,1007.81,VALID,0,VALID,94.2396,VALID,39.3201,VALID,23.9973,VALID,105,VALID,1.40039,
2008-08-19, 09:53:04,VALID,1007.75,VALID,0,VALID,94.354,VALID,41.8342,VALID,23.9761,VALID,101,VALID,0.732031,
2008-08-19, 09:54:04,VALID,1007.75,VALID,0,VALID,94.415,VALID,44.6499,VALID,23.9761,VALID,117,VALID,1.00352,
2008-08-19, 09:55:04,VALID,1007.7,VALID,0,VALID,94.4913,VALID,47.9685,VALID,24.0168,VALID,125,VALID,0.954687,
2008-08-19, 09:56:04,VALID,1007.67,VALID,0,VALID,94.4837,VALID,51.991,VALID,24.015,VALID,114,VALID,0.844922,
2008-08-19, 09:57:04,VALID,1007.66,VALID,0,VALID,94.4913,VALID,56.8181,VALID,24.0345,VALID,107,VALID,0.748438,
2008-08-19, 09:58:04,VALID,1007.65,VALID,0,VALID,94.5829,VALID,62.1479,VALID,24.0557,VALID,52,VALID,0.282813,
2008-08-19, 09:59:04,VALID,1007.62,VALID,0,VALID,94.6286,VALID,68.0811,VALID,24.0539,VALID,54,VALID,0.398438,
2008-08-19, 10:00:04,VALID,1007.6,VALID,0.5,VALID,94.6439,VALID,74.5171,VALID,24.0539,VALID,121,VALID,0.474219,
2008-08-19, 10:01:04,VALID,1007.54,VALID,0,VALID,94.7507,VALID,81.7577,VALID,24.0947,VALID,139,VALID,0.738672,
2008-08-19, 10:02:04,VALID,1007.51,VALID,0,VALID,94.7888,VALID,89.7021,VALID,24.0929,VALID,147,VALID,0.530859,
2008-08-19, 10:03:04,VALID,1007.48,VALID,0,VALID,94.7354,VALID,98.0489,VALID,24.1123,VALID,160,VALID,0.616406,
2008-08-19, 10:04:04,VALID,1007.5,VALID,0,VALID,94.6668,VALID,107.1,VALID,24.0716,VALID,154,VALID,0.854297,
2008-08-19, 10:05:04,VALID,1007.47,VALID,0,VALID,94.7431,VALID,116.854,VALID,24.1123,VALID,157,VALID,0.914453,
2008-08-19, 10:06:04,VALID,1007.47,VALID,0,VALID,94.7278,VALID,127.212,VALID,24.0929,VALID,171,VALID,0.804297,
2008-08-19, 10:07:04,VALID,1007.45,VALID,0,VALID,94.8499,VALID,138.274,VALID,24.1123,VALID,177,VALID,0.84375,
2008-08-19, 10:08:04,VALID,1007.46,VALID,0,VALID,94.7125,VALID,150.14,VALID,24.1123,VALID,171,VALID,0.652344,
2008-08-19, 10:09:04,VALID,1007.44,VALID,0,VALID,94.8346,VALID,163.113,VALID,24.1513,VALID,170,VALID,0.58125,
2008-08-19, 10:10:04,VALID,1007.47,VALID,0,VALID,94.6439,VALID,175.382,VALID,24.1123,VALID,142,VALID,0.61875,
2008-08-19, 10:11:04,VALID,1007.46,VALID,0,VALID,94.7125,VALID,185.438,VALID,24.1318,VALID,141,VALID,0.517578,
2008-08-19, 10:12:04,VALID,1007.46,VALID,0,VALID,94.7507,VALID,194.79,VALID,24.1707,VALID,141,VALID,0,
2008-08-19, 10:13:04,VALID,1007.48,VALID,0,VALID,94.9567,VALID,201.83,VALID,24.2273,VALID,141,VALID,0.305469,
2008-08-19, 10:14:04,VALID,1007.52,VALID,0,VALID,94.888,VALID,206.858,VALID,24.2681,VALID,22,VALID,0.632422,
2008-08-19, 10:15:04,VALID,1007.53,VALID,0,VALID,94.8194,VALID,209.875,VALID,24.3088,VALID,23,VALID,0.389453,
2008-08-19, 10:16:04,VALID,1007.52,VALID,0,VALID,94.9796,VALID,212.49,VALID,24.3849,VALID,22,VALID,0.431641,
2008-08-19, 10:17:04,VALID,1007.55,VALID,0,VALID,95.2084,VALID,210.981,VALID,24.5017,VALID,11,VALID,0.352734,
2008-08-19, 10:18:04,VALID,1007.55,VALID,0,VALID,95.2618,VALID,209.473,VALID,24.5796,VALID,349,VALID,0.0167969,
2008-08-19, 10:19:04,VALID,1007.55,VALID,0,VALID,95.422,VALID,206.959,VALID,24.7353,VALID,349,VALID,0.110547,
2008-08-19, 10:20:04,VALID,1007.56,VALID,0,VALID,95.2542,VALID,205.048,VALID,24.7937,VALID,275,VALID,0.740625,
2008-08-19, 10:21:04,VALID,1007.61,VALID,0,VALID,95.1474,VALID,205.651,VALID,24.854,VALID,275,VALID,0.158984,
2008-08-19, 10:22:04,VALID,1007.62,VALID,0,VALID,95.1779,VALID,204.947,VALID,24.8716,VALID,275,VALID,0.0355469,
2008-08-19, 10:23:04,VALID,1007.66,VALID,0,VALID,95.0101,VALID,204.344,VALID,24.9319,VALID,275,VALID,0.325781,
2008-08-19, 10:24:04,VALID,1007.68,VALID,0,VALID,94.8117,VALID,202.735,VALID,24.93,VALID,275,VALID,0.121484,
2008-08-19, 10:25:04,VALID,1007.67,VALID,0,VALID,94.56,VALID,200.221,VALID,24.9319,VALID,275,VALID,0.357812,
2008-08-19, 10:26:04,VALID,1007.7,VALID,0,VALID,94.4303,VALID,196.5,VALID,24.9125,VALID,273,VALID,0.358594,
2008-08-19, 10:27:04,VALID,1007.7,VALID,0,VALID,94.6134,VALID,192.075,VALID,24.93,VALID,273,VALID,0.217969,
2008-08-19, 10:28:04,VALID,1007.72,VALID,0,VALID,94.56,VALID,186.645,VALID,24.969,VALID,273,VALID,0.299609,
2008-08-19, 10:29:04,VALID,1007.74,VALID,0,VALID,94.4455,VALID,181.918,VALID,24.9495,VALID,273,VALID,0.513281,
2008-08-19, 10:30:04,VALID,1007.77,VALID,0,VALID,94.5905,VALID,176.589,VALID,25.0079,VALID,278,VALID,0.498047,
2008-08-19, 10:31:04,VALID,1007.79,VALID,0,VALID,94.5905,VALID,172.868,VALID,25.0488,VALID,278,VALID,0.158984,
2008-08-19, 10:32:04,VALID,1007.79,VALID,0,VALID,94.3921,VALID,168.544,VALID,25.0663,VALID,281,VALID,0.161328,
2008-08-19, 10:33:04,VALID,1007.8,VALID,0,VALID,94.293,VALID,165.728,VALID,25.0858,VALID,264,VALID,0.510938,
2008-08-19, 10:34:04,VALID,1007.82,VALID,0,VALID,93.9115,VALID,164.42,VALID,25.0663,VALID,230,VALID,0.771094,